Ever Diamond — 3FQS8 — position and weather

sailwx.info

Track history (hours):
 
Tides and Currents Weather Stations Pressure Air Temp Water Temp Dewpoint Dewpoint Depression Visibility Wind Speed Wind Dir Waves Ship Positions

Ever Diamond

Last reported at 2014-Nov-24 14:33 UTC. Time now 2014-Nov-24 14:49 UTC.
Position N 22°27' E 119°27'.

Type: Ship (hazmat cat D). MMSI: 354893000.

Date/timePositionNaut miles runAvg speedWind from/ knotsBaromVisibWave heightAir tempDewpointWater temp
2014-Nov-24 14:33N 22°27' E 119°27'1616.7
2014-Nov-24 13:33N 22°29' E 119°45'1615.8
2014-Nov-24 12:33N 22°30' E 120°02'1514.8
2014-Nov-24 11:33N 22°33' E 120°18'2 2.1
2014-Nov-24 10:32N 22°33' E 120°20'0 0.0
2014-Nov-24 09:28N 22°33' E 120°20'0 0.0
2014-Nov-24 04:31N 22°33' E 120°20'0 0.0
2014-Nov-24 03:25N 22°33' E 120°20'0 0.0
2014-Nov-24 02:31N 22°33' E 120°20'0 0.0
2014-Nov-23 23:13N 22°33' E 120°20'0 0.0
2014-Nov-23 22:31N 22°33' E 120°20'0 0.0
2014-Nov-23 21:31N 22°33' E 120°20'0 0.0
2014-Nov-23 20:31N 22°33' E 120°20'0 0.0
2014-Nov-23 19:19N 22°33' E 120°20'0 0.0
2014-Nov-23 10:32N 22°33' E 120°20'5 4.7
2014-Nov-23 09:33N 22°32' E 120°15'1414.3
2014-Nov-23 08:33N 22°18' E 120°16'  
2014-Nov-20 00:20N 34°57' E 139°39'40 5.9
2014-Nov-19 17:29N 35°37' E 139°47'0 0.1
2014-Nov-19 16:29N 35°37' E 139°47'0 0.1
2014-Nov-19 15:32N 35°37' E 139°47'0 0.0
2014-Nov-19 14:32N 35°37' E 139°47'0 0.0
2014-Nov-19 13:29N 35°37' E 139°47'0 0.0
2014-Nov-19 12:23N 35°37' E 139°47'0 0.1
2014-Nov-19 11:26N 35°37' E 139°47'0 0.0
2014-Nov-19 10:17N 35°37' E 139°47'1 1.5
2014-Nov-19 09:33N 35°36' E 139°47'4 3.7
2014-Nov-19 08:31N 35°34' E 139°51'0 0.1
2014-Nov-19 07:31N 35°34' E 139°51'0 0.0
2014-Nov-19 06:28N 35°34' E 139°51'0 0.0
2014-Nov-19 05:31N 35°34' E 139°51'0 0.0
2014-Nov-19 04:31N 35°34' E 139°51'0 0.0
2014-Nov-19 03:31N 35°34' E 139°51'0 0.0
2014-Nov-19 02:31N 35°34' E 139°51'0 0.1
2014-Nov-19 01:31N 35°34' E 139°51'1 1.2
2014-Nov-19 00:33N 35°33' E 139°53'1010.4
2014-Nov-18 23:34N 35°24' E 139°46'1111.4
2014-Nov-18 22:34N 35°13' E 139°47'7 6.4
2014-Nov-18 21:33N 35°06' E 139°45'7 6.6
2014-Nov-18 20:27N 34°59' E 139°43'17812.3
2014-Nov-18 06:00N 37°06' E 142°18'38515.4 350 / 231017.027.0 12.112.012.0
2014-Nov-17 05:00N 42°18' E 147°12'42517.7 300 / 181017.027.0 6.0 6.0 6.0
2014-Nov-16 05:00N 47°42' E 153°42'   340 / 211000.010.8 2.8 2.0 2.8
Track history (hours):
 
Tides and Currents Weather Stations Pressure Air Temp Water Temp Dewpoint Dewpoint Depression Visibility Wind Speed Wind Dir Waves Ship Positions

Ever Diamond

Last reported at 2014-Nov-24 14:33 UTC. Time now 2014-Nov-24 14:49 UTC.
Position N 22°27' E 119°27'.

Type: Ship (hazmat cat D). MMSI: 354893000.

Date/timePositionNaut miles runAvg speedWind from/ knotsBaromVisibWave heightAir tempDewpointWater temp
2014-Nov-24 14:33N 22°27' E 119°27'1616.7
2014-Nov-24 13:33N 22°29' E 119°45'1615.8
2014-Nov-24 12:33N 22°30' E 120°02'1514.8
2014-Nov-24 11:33N 22°33' E 120°18'2 2.1
2014-Nov-24 10:32N 22°33' E 120°20'0 0.0
2014-Nov-24 09:28N 22°33' E 120°20'0 0.0
2014-Nov-24 04:31N 22°33' E 120°20'0 0.0
2014-Nov-24 03:25N 22°33' E 120°20'0 0.0
2014-Nov-24 02:31N 22°33' E 120°20'0 0.0
2014-Nov-23 23:13N 22°33' E 120°20'0 0.0
2014-Nov-23 22:31N 22°33' E 120°20'0 0.0
2014-Nov-23 21:31N 22°33' E 120°20'0 0.0
2014-Nov-23 20:31N 22°33' E 120°20'0 0.0
2014-Nov-23 19:19N 22°33' E 120°20'0 0.0
2014-Nov-23 10:32N 22°33' E 120°20'5 4.7
2014-Nov-23 09:33N 22°32' E 120°15'1414.3
2014-Nov-23 08:33N 22°18' E 120°16'  
2014-Nov-20 00:20N 34°57' E 139°39'40 5.9
2014-Nov-19 17:29N 35°37' E 139°47'0 0.1
2014-Nov-19 16:29N 35°37' E 139°47'0 0.1
2014-Nov-19 15:32N 35°37' E 139°47'0 0.0
2014-Nov-19 14:32N 35°37' E 139°47'0 0.0
2014-Nov-19 13:29N 35°37' E 139°47'0 0.0
2014-Nov-19 12:23N 35°37' E 139°47'0 0.1
2014-Nov-19 11:26N 35°37' E 139°47'0 0.0
2014-Nov-19 10:17N 35°37' E 139°47'1 1.5
2014-Nov-19 09:33N 35°36' E 139°47'4 3.7
2014-Nov-19 08:31N 35°34' E 139°51'0 0.1
2014-Nov-19 07:31N 35°34' E 139°51'0 0.0
2014-Nov-19 06:28N 35°34' E 139°51'0 0.0
2014-Nov-19 05:31N 35°34' E 139°51'0 0.0
2014-Nov-19 04:31N 35°34' E 139°51'0 0.0
2014-Nov-19 03:31N 35°34' E 139°51'0 0.0
2014-Nov-19 02:31N 35°34' E 139°51'0 0.1
2014-Nov-19 01:31N 35°34' E 139°51'1 1.2
2014-Nov-19 00:33N 35°33' E 139°53'1010.4
2014-Nov-18 23:34N 35°24' E 139°46'1111.4
2014-Nov-18 22:34N 35°13' E 139°47'7 6.4
2014-Nov-18 21:33N 35°06' E 139°45'7 6.6
2014-Nov-18 20:27N 34°59' E 139°43'17812.3
2014-Nov-18 06:00N 37°06' E 142°18'38515.4 350 / 231017.027.0 12.112.012.0
2014-Nov-17 05:00N 42°18' E 147°12'42517.7 300 / 181017.027.0 6.0 6.0 6.0
2014-Nov-16 05:00N 47°42' E 153°42'   340 / 211000.010.8 2.8 2.0 2.8

Dump ship's entire track history